Weather Service Report


668 
ASUS42 KFFC 161603
RWRGA 
WEATHER ROUNDUP FOR GEORGIA
NATIONAL WEATHER SERVICE PEACHTREE CITY GA
1200 PM EDT WED APR 16 2014

NOTE: "FAIR" INDICATES FEW OR NO CLOUDS BELOW 12,000 FEET WITH NO
SIGNIFICANT WEATHER AND/OR OBSTRUCTIONS TO VISIBILITY. 

* = USE WITH CAUTION. THE STATIONS MARKED WITH AN ASTERISK MAY NOT
REPORT WEATHER SUCH AS PRECIPITATION, FOG, OR THUNDER AND ARE NOT 
QUALITY CONTROLLED BY NWS.

THE REMARK "TC" DENOTES TEMPERATURE READING IN DEGREES CELSIUS.

GAZ001>058-161700-
NORTH GEORGIA
  
CITY           SKY/WX    TMP DP  RH WIND       PRES   REMARKS
ATLANTA        SUNNY     50  27  40 E10       30.30R                  
ATHENS         SUNNY     50  25  37 E10       30.33S                  
CHAMBLEE       SUNNY     49  23  36 E8        30.30S                  
PEACHTREE CITY SUNNY     51  27  39 E13G20    30.30R                  
ROME           SUNNY     51  30  44 E6        30.30S                  
WEST ATLANTA   SUNNY     50  23  34 E14       30.30R                  
GAINESVILLE    SUNNY     48  25  40 VRB7G16   30.32R                  
CARTERSVILLE   SUNNY     51  27  39 E10       30.31R                  

  
CITY           SKY/WX    TMP DP  RH WIND       PRES   REMARKS
DALTON*        SUNNY     48  30  49 CALM      30.32R                  
LAWRENCEVILLE* SUNNY     50  27  40 E12G21    30.30                   
MARIETTA       SUNNY     50  26  40 E10       30.30R                  
KENNESAW*      SUNNY     48  27  43 SE14G20   30.31R                  
$$

GAZ059>098-102>109-161700-
CENTRAL GEORGIA
  
CITY           SKY/WX    TMP DP  RH WIND       PRES   REMARKS
AUGUSTA-BUSH   SUNNY     52  24  33 NE8G18    30.34R                  
AUGUSTA-DANIEL SUNNY     52  24  33 NE12      30.34R                  
COLUMBUS       SUNNY     52  28  39 E12       30.28R                  
MACON          SUNNY     53  29  39 E13       30.29S                  
ROBINS AFB     SUNNY     53  28  37 E9        30.29S                  

  
CITY           SKY/WX    TMP DP  RH WIND       PRES   REMARKS
LAGRANGE*      SUNNY     53  31  43 E7        30.29R                  
SYLVANIA*      SUNNY     54  33  45 E12       30.32F                  
MILLEDGEVILLE* SUNNY     55   9  15 E8        30.31F                  
$$

GAZ099>101-110>166-161700-
SOUTH GEORGIA
  
CITY           SKY/WX    TMP DP  RH WIND       PRES   REMARKS
SAVANNAH       MOSUNNY   56  33  42 NE16G22   30.31R                  
VALDOSTA       SUNNY     60  38  43 NE14G21   30.24S                  
ALMA           SUNNY     53  35  50 E8G17     30.28R                  
ST SIMONS      LGT RAIN  55  42  61 NE18G29   30.28R                  
FT STEWART     SUNNY     54  39  57 NE10G17   30.29R                  
ALBANY         SUNNY     55  29  36 E10G21    30.28S                  
HUNTER AFB     SUNNY     54  36  51 NE14      30.29R                  
MOODY AFB      SUNNY     55  38  53 E13       30.24S                  
BRUNSWICK      PTSUNNY   54  41  62 NE17      30.30R                  

  
CITY           SKY/WX    TMP DP  RH WIND       PRES   REMARKS
BAINBRIDGE*    SUNNY     59  41  51 NE13G20   30.25S                  
MOULTRIE*      SUNNY     54  36  50 NE8       30.26R                  
VIDALIA*       SUNNY     52  34  50 E14G21    30.30S                  
DOUGLAS*       SUNNY     52  36  54 E13       30.29R                  
$$

Return to Home page


Western Regional Climate Center, wrcc@dri.edu